TimeCST,TemperatureF,Dew PointF,Humidity,Sea Level PressureIn,VisibilityMPH,Wind Direction,Wind SpeedMPH,Gust SpeedMPH,PrecipitationIn,Events,Conditions,WindDirDegrees,DateUTC
12:38 AM,39.2,39.2,100,29.90,2.0,NNW,5.8,-,N/A,,Overcast,330,2012-11-07 06:38:00
12:47 AM,39.2,39.2,100,29.90,2.0,NNW,6.9,-,N/A,,Overcast,330,2012-11-07 06:47:00
12:54 AM,39.9,37.9,93,29.92,2.0,NNW,6.9,-,N/A,,Overcast,330,2012-11-07 06:54:00
1:12 AM,39.2,37.4,93,29.90,2.0,NNW,6.9,-,N/A,,Overcast,340,2012-11-07 07:12:00
1:44 AM,39.2,37.4,93,29.91,2.0,NNW,6.9,-,N/A,,Overcast,340,2012-11-07 07:44:00
1:52 AM,39.2,37.4,93,29.92,2.0,NNW,6.9,-,N/A,,Overcast,340,2012-11-07 07:52:00
1:54 AM,39.9,37.9,93,29.94,2.0,NNW,6.9,-,N/A,,Overcast,340,2012-11-07 07:54:00
2:26 AM,39.2,37.4,93,29.92,2.0,NNW,6.9,-,N/A,,Overcast,340,2012-11-07 08:26:00
2:50 AM,39.2,37.4,93,29.93,2.0,North,5.8,-,N/A,,Overcast,350,2012-11-07 08:50:00
2:54 AM,39.9,37.9,93,29.95,2.0,North,6.9,-,N/A,,Overcast,350,2012-11-07 08:54:00
2:57 AM,39.2,37.4,93,29.93,5.0,NNW,6.9,-,N/A,,Overcast,340,2012-11-07 08:57:00
3:07 AM,39.2,37.4,93,29.93,5.0,North,5.8,-,N/A,,Overcast,350,2012-11-07 09:07:00
3:54 AM,39.0,37.9,96,29.97,2.0,North,8.1,-,N/A,,Overcast,350,2012-11-07 09:54:00
4:07 AM,39.2,37.4,93,29.95,2.0,North,6.9,-,N/A,,Overcast,350,2012-11-07 10:07:00
4:39 AM,39.2,37.4,93,29.97,1.5,North,8.1,-,N/A,,Overcast,10,2012-11-07 10:39:00
4:54 AM,39.0,37.9,96,29.99,1.0,North,8.1,-,N/A,,Overcast,10,2012-11-07 10:54:00
5:54 AM,39.0,39.0,100,30.01,1.0,North,6.9,-,0.00,,Light Drizzle,360,2012-11-07 11:54:00
6:36 AM,39.2,39.2,100,30.01,1.0,NE,6.9,-,0.00,,Overcast,40,2012-11-07 12:36:00
6:45 AM,39.2,39.2,100,30.01,2.0,NNE,8.1,-,0.00,,Overcast,30,2012-11-07 12:45:00
6:54 AM,39.9,37.9,93,30.04,2.0,NE,6.9,-,0.00,,Overcast,40,2012-11-07 12:54:00
7:54 AM,41.0,39.0,93,30.07,2.0,NNE,6.9,-,N/A,,Overcast,30,2012-11-07 13:54:00
8:54 AM,41.0,39.0,93,30.10,2.5,NNE,8.1,-,N/A,,Overcast,20,2012-11-07 14:54:00
9:32 AM,42.8,39.2,87,30.10,2.5,North,5.8,-,N/A,,Overcast,360,2012-11-07 15:32:00
9:54 AM,42.1,39.0,89,30.12,2.5,North,4.6,-,N/A,,Overcast,350,2012-11-07 15:54:00
10:54 AM,42.1,37.9,85,30.12,5.0,NNE,5.8,-,N/A,,Overcast,30,2012-11-07 16:54:00
11:54 AM,43.0,37.9,82,30.12,5.0,North,3.5,-,N/A,,Haze,360,2012-11-07 17:54:00
12:22 PM,44.6,37.4,76,30.10,5.0,NNW,3.5,-,N/A,,Haze,330,2012-11-07 18:22:00
12:54 PM,43.0,37.9,82,30.12,6.0,NNW,6.9,-,N/A,,Haze,330,2012-11-07 18:54:00
1:32 PM,44.6,39.2,81,30.11,6.0,NNW,4.6,-,N/A,,Haze,330,2012-11-07 19:32:00
1:54 PM,44.1,37.9,79,30.12,6.0,North,5.8,-,N/A,,Haze,350,2012-11-07 19:54:00
2:54 PM,44.1,37.9,79,30.14,7.0,NNE,3.5,-,0.00,,Light Drizzle,20,2012-11-07 20:54:00
3:54 PM,44.1,37.9,79,30.14,6.0,Calm,Calm,-,0.00,,Haze,0,2012-11-07 21:54:00
4:28 PM,42.8,37.4,81,30.13,6.0,Calm,Calm,-,N/A,,Haze,0,2012-11-07 22:28:00
4:54 PM,43.0,37.9,82,30.15,7.0,Calm,Calm,-,N/A,,Overcast,0,2012-11-07 22:54:00
5:47 PM,42.8,37.4,81,30.15,7.0,NNW,3.5,-,N/A,,Overcast,340,2012-11-07 23:47:00
5:54 PM,42.1,37.9,85,30.17,6.0,NNW,3.5,-,N/A,,Overcast,330,2012-11-07 23:54:00
6:54 PM,42.1,37.9,85,30.17,7.0,Calm,Calm,-,N/A,,Overcast,0,2012-11-08 00:54:00
7:54 PM,42.1,37.9,85,30.18,7.0,Calm,Calm,-,N/A,,Overcast,0,2012-11-08 01:54:00
8:54 PM,42.1,37.9,85,30.19,6.0,Calm,Calm,-,N/A,,Overcast,0,2012-11-08 02:54:00
9:54 PM,42.1,39.0,89,30.19,6.0,Calm,Calm,-,N/A,,Overcast,0,2012-11-08 03:54:00
10:54 PM,41.0,37.9,89,30.19,6.0,Calm,Calm,-,N/A,,Overcast,0,2012-11-08 04:54:00
11:54 PM,41.0,37.9,89,30.19,7.0,Calm,Calm,-,N/A,,Overcast,0,2012-11-08 05:54:00